Location: Rowland
(34.5359°N, 79.2929°W)
Time: 18:28:42
(UTC+00:00)

Transit 2A Rocket - Pass Details

Date: 11 October 2022
Orbit: 589 x 911 km, 66.7° (Epoch: 02 December)

Event Time Altitude Azimuth Distance (km) Brightness Sun altitude
Rises 16:48:45 0° 350° (N) 3,058 7.7 48.1°
Reaches altitude 10° 16:51:41 10° 9° (N) 2,200 7.1 48.2°
Maximum altitude 16:55:11 19° 54° (NE) 1,754 6.8 48.2°
Drops below altitude 10° 16:58:52 10° 97° (E) 2,345 7.7 48.2°
Sets 17:02:07 0° 115° (ESE) 3,337 8.5 48.3°
